Location: Acts Church of Fort Worth
(32.6786°N, 97.2668°W)
Time: 08:13:07
(UTC+00:00)

Timation 2 Rocket - Pass Details

Date: 18 January 2026
Orbit: 906 x 1072 km, 70.0° (Epoch: 9 February)

Event Time Altitude Azimuth Distance (km) Brightness Sun altitude
Exits shadow 11:42:39 23° 227° (SW) 2,027 5.3 -22.5°
Maximum altitude 11:46:41 53° 295° (WNW) 1,234 4.1 -21.7°
Drops below altitude 10° 11:52:56 10° 11° (N) 2,743 6.3 -20.4°
Sets 11:55:32 0° 16° (NNE) 3,669 7.1 -19.8°
